| time (UTC) | temp F | wind direction | speed knots | gust knots | rain 1hr in | rain 24hr in | rain mn in | humidity % | barometer mb |
| 20260507065027 | 48 | 0.0 | 1.7 | 0.00 | 0.24 | 0.00 | 80 | 1010.4 | |
| 20260507064043 | 48 | 0.0 | 0.0 | 0.00 | 0.24 | 0.00 | 81 | 1010.4 | |
| 20260507063040 | 47 | 45 | 1.7 | 9.6 | 0.00 | 0.24 | 0.00 | 82 | 1010.2 |
| 20260507062016 | 47 | 0.0 | 0.0 | 0.00 | 0.24 | 0.00 | 82 | 1010.1 | |
| 20260507061112 | 47 | 0.0 | 0.0 | 0.00 | 0.25 | 0.00 | 82 | 1010.0 | |
| 20260507060148 | 47 | 0.0 | 0.0 | 0.00 | 0.25 | 0.00 | 82 | 1010.0 | |
| 20260507055104 | 47 | 12 | 1.7 | 7.0 | 0.00 | 0.25 | 0.00 | 83 | 1009.9 |
| 20260507054100 | 47 | 0 | 0.0 | 1.7 | 0.00 | 0.25 | 0.00 | 84 | 1009.7 |
| 20260507053116 | 46 | 0 | 0.9 | 3.5 | 0.00 | 0.26 | 0.00 | 84 | 1009.6 |
| 20260507052052 | 46 | 0.0 | 0.0 | 0.00 | 0.26 | 0.00 | 84 | 1009.6 | |
| 20260507051108 | 46 | 0.0 | 0.0 | 0.00 | 0.26 | 0.00 | 84 | 1009.5 | |
| 20260507050044 | 46 | 0.0 | 0.0 | 0.00 | 0.26 | 0.00 | 84 | 1009.5 | |
| 20260507045040 | 46 | 0.0 | 0.0 | 0.00 | 0.27 | 0.00 | 84 | 1009.2 | |
| 20260507044035 | 46 | 0.0 | 0.0 | 0.00 | 0.28 | 0.00 | 84 | 1009.2 | |
| 20260507043032 | 46 | 0.0 | 0.0 | 0.00 | 0.28 | 0.00 | 83 | 1009.2 | |
| 20260507042028 | 46 | 356 | 3.5 | 6.1 | 0.00 | 0.28 | 0.00 | 84 | 1009.2 |
| 20260507041024 | 46 | 0.0 | 1.7 | 0.00 | 0.28 | 0.00 | 84 | 1009.0 | |
| 20260507040041 | 46 | 0.0 | 0.9 | 0.00 | 0.30 | 0.00 | 85 | 1008.7 | |
| 20260507035017 | 46 | 23 | 0.9 | 2.6 | 0.00 | 0.31 | 0.00 | 85 | 1008.7 |
| 20260507034113 | 46 | 45 | 0.0 | 2.6 | 0.00 | 0.31 | 0.00 | 86 | 1008.6 |
| 20260507033129 | 46 | 315 | 0.9 | 3.5 | 0.00 | 0.32 | 0.00 | 86 | 1008.6 |
| 20260507032126 | 46 | 120 | 1.7 | 4.3 | 0.00 | 0.33 | 0.00 | 86 | 1008.5 |
| 20260507031102 | 46 | 0.0 | 0.0 | 0.00 | 0.35 | 0.00 | 86 | 1008.5 | |
| 20260507030058 | 46 | 0.0 | 0.0 | 0.00 | 0.38 | 0.00 | 86 | 1008.5 | |
| 20260507025054 | 46 | 0.0 | 2.6 | 0.00 | 0.40 | 0.00 | 86 | 1008.4 | |
| 20260507024111 | 46 | 0 | 0.9 | 6.1 | 0.00 | 0.41 | 0.00 | 86 | 1008.4 |
| 20260507023046 | 46 | 0.0 | 0.9 | 0.00 | 0.43 | 0.00 | 86 | 1008.4 | |
| 20260507022042 | 46 | 0 | 1.7 | 6.1 | 0.00 | 0.44 | 0.00 | 87 | 1008.3 |
| 20260507021038 | 46 | 90 | 0.0 | 1.7 | 0.00 | 0.46 | 0.00 | 87 | 1008.3 |
| 20260507020034 | 46 | 289 | 0.9 | 3.5 | 0.00 | 0.47 | 0.00 | 88 | 1008.3 |
| 20260507015130 | 46 | 90 | 0.0 | 3.5 | 0.00 | 0.48 | 0.00 | 88 | 1008.4 |
| 20260507014026 | 46 | 0.0 | 0.9 | 0.00 | 0.50 | 0.00 | 88 | 1008.3 | |
| 20260507013042 | 46 | 0.0 | 0.0 | 0.00 | 0.51 | 0.00 | 88 | 1008.1 | |
| 20260507012017 | 46 | 0.0 | 0.0 | 0.00 | 0.52 | 0.00 | 88 | 1008.2 | |
| 20260507011112 | 46 | 0.0 | 0.9 | 0.00 | 0.52 | 0.00 | 88 | 1008.1 | |
| 20260507010129 | 46 | 0.0 | 0.0 | 0.00 | 0.53 | 0.00 | 88 | 1007.9 | |
| 20260507005105 | 46 | 0.0 | 0.0 | 0.00 | 0.53 | 0.00 | 88 | 1007.8 | |
| 20260507004102 | 46 | 0.0 | 0.0 | 0.00 | 0.53 | 0.00 | 88 | 1007.7 | |
| 20260507003118 | 46 | 45 | 0.9 | 5.2 | 0.00 | 0.54 | 0.00 | 88 | 1007.6 |
| 20260507002053 | 46 | 0.0 | 0.0 | 0.00 | 0.54 | 0.00 | 88 | 1007.6 | |
| 20260507001050 | 46 | 0.0 | 0.0 | 0.00 | 0.54 | 0.00 | 88 | 1007.6 | |
| 20260507000046 | 46 | 0.0 | 0.0 | 0.00 | 0.54 | 0.00 | 88 | 1007.8 | |
| 20260506235043 | 46 | 0.0 | 0.0 | 0.00 | 0.54 | 0.00 | 88 | 1007.7 | |
| 20260506234038 | 46 | 0.0 | 0.0 | 0.00 | 0.54 | 0.00 | 88 | 1007.8 | |
| 20260506233035 | 46 | 0.0 | 0.0 | 0.00 | 0.54 | 0.00 | 88 | 1007.8 | |
| 20260506232051 | 47 | 315 | 1.7 | 7.0 | 0.00 | 0.54 | 0.00 | 89 | 1007.8 |
| 20260506231027 | 47 | 0.0 | 0.9 | 0.00 | 0.54 | 0.00 | 90 | 1007.5 | |
| 20260506230022 | 48 | 135 | 0.0 | 3.5 | 0.00 | 0.54 | 0.00 | 90 | 1007.4 |
| 20260506225038 | 48 | 0.0 | 0.0 | 0.00 | 0.54 | 0.00 | 91 | 1007.3 | |
| 20260506224135 | 48 | 0.0 | 0.0 | 0.00 | 0.54 | 0.00 | 91 | 1007.2 | |
| 20260506223111 | 49 | 0.0 | 0.0 | 0.00 | 0.54 | 0.00 | 91 | 1007.2 | |
| 20260506222107 | 49 | 0.0 | 0.0 | 0.00 | 0.54 | 0.00 | 92 | 1007.1 | |
| 20260506221102 | 49 | 0.0 | 0.0 | 0.00 | 0.54 | 0.00 | 92 | 1007.1 | |
| 20260506220119 | 50 | 0.0 | 0.0 | 0.00 | 0.54 | 0.00 | 93 | 1007.1 | |
| 20260506215054 | 50 | 0 | 0.9 | 3.5 | 0.00 | 0.54 | 0.54 | 93 | 1007.0 |
| 20260506214050 | 50 | 0.0 | 0.0 | 0.00 | 0.54 | 0.54 | 94 | 1006.8 | |
| 20260506213106 | 50 | 0.0 | 0.0 | 0.00 | 0.54 | 0.54 | 94 | 1006.8 | |
| 20260506212041 | 51 | 0.0 | 0.0 | 0.00 | 0.54 | 0.54 | 94 | 1006.8 | |
| 20260506211058 | 51 | 0.0 | 0.0 | 0.00 | 0.54 | 0.54 | 94 | 1006.7 | |
| 20260506210033 | 51 | 0.0 | 0.0 | 0.00 | 0.54 | 0.54 | 94 | 1006.6 | |
| 20260506205029 | 51 | 0.0 | 0.0 | 0.00 | 0.54 | 0.54 | 94 | 1006.6 | |
| 20260506204025 | 51 | 0.0 | 0.0 | 0.00 | 0.54 | 0.54 | 94 | 1006.6 | |
| 20260506203021 | 51 | 0.0 | 0.0 | 0.00 | 0.54 | 0.54 | 93 | 1006.6 | |
| 20260506202018 | 51 | 0.0 | 0.0 | 0.00 | 0.54 | 0.54 | 93 | 1006.7 | |
| 20260506201114 | 51 | 0.0 | 0.0 | 0.00 | 0.54 | 0.54 | 93 | 1006.6 | |
| 20260506200110 | 51 | 0.0 | 0.0 | 0.00 | 0.54 | 0.54 | 93 | 1006.4 | |
| 20260506195106 | 51 | 0.0 | 0.0 | 0.00 | 0.54 | 0.54 | 93 | 1006.3 | |
| 20260506194102 | 51 | 0.0 | 0.0 | 0.00 | 0.54 | 0.54 | 92 | 1006.4 | |
| 20260506193058 | 51 | 0.0 | 0.0 | 0.00 | 0.54 | 0.54 | 92 | 1006.2 | |
| 20260506192054 | 52 | 0.0 | 0.0 | 0.00 | 0.54 | 0.54 | 92 | 1006.2 | |
| 20260506191050 | 52 | 0.0 | 0.0 | 0.00 | 0.54 | 0.54 | 92 | 1006.0 | |
| 20260506190046 | 52 | 0.0 | 0.0 | 0.00 | 0.54 | 0.54 | 91 | 1005.8 | |
| 20260506185042 | 52 | 0.0 | 0.0 | 0.00 | 0.54 | 0.54 | 91 | 1005.7 | |
| 20260506184038 | 52 | 0.0 | 0.0 | 0.00 | 0.54 | 0.54 | 90 | 1005.8 | |
| 20260506183035 | 53 | 0.0 | 0.0 | 0.00 | 0.54 | 0.54 | 90 | 1005.6 | |
| 20260506182031 | 53 | 0.0 | 0.0 | 0.00 | 0.54 | 0.54 | 90 | 1005.6 | |
| 20260506181107 | 53 | 0.0 | 0.0 | 0.00 | 0.54 | 0.54 | 90 | 1005.4 | |
| 20260506180023 | 53 | 0.0 | 0.0 | 0.00 | 0.54 | 0.54 | 90 | 1005.4 | |
| 20260506175019 | 54 | 0.0 | 0.0 | 0.00 | 0.54 | 0.54 | 90 | 1005.3 | |
| 20260506174115 | 54 | 0.0 | 0.0 | 0.00 | 0.54 | 0.54 | 90 | 1005.3 | |
| 20260506173111 | 54 | 0.0 | 0.0 | 0.00 | 0.54 | 0.54 | 89 | 1005.5 | |
| 20260506172107 | 54 | 0.0 | 0.0 | 0.00 | 0.54 | 0.54 | 86 | 1005.4 | |
| 20260506171103 | 55 | 0.0 | 0.0 | 0.00 | 0.54 | 0.54 | 84 | 1005.3 | |
| 20260506170100 | 55 | 0.0 | 0.0 | 0.00 | 0.54 | 0.54 | 84 | 1005.1 | |
| 20260506165116 | 55 | 0.0 | 0.0 | 0.00 | 0.54 | 0.54 | 84 | 1005.1 | |
| 20260506164052 | 56 | 0.0 | 0.0 | 0.00 | 0.54 | 0.54 | 83 | 1005.1 | |
| 20260506163128 | 56 | 0.0 | 0.0 | 0.00 | 0.54 | 0.54 | 83 | 1005.2 | |
| 20260506162044 | 56 | 0.0 | 0.0 | 0.00 | 0.54 | 0.54 | 83 | 1005.0 | |
| 20260506161040 | 57 | 0.0 | 0.0 | 0.00 | 0.54 | 0.54 | 84 | 1005.2 | |
| 20260506160036 | 57 | 0.0 | 0.0 | 0.00 | 0.54 | 0.54 | 84 | 1005.2 | |
| 20260506155032 | 57 | 0.0 | 1.7 | 0.00 | 0.54 | 0.54 | 86 | 1005.2 | |
| 20260506154028 | 56 | 0.0 | 0.0 | 0.00 | 0.54 | 0.54 | 85 | 1005.2 | |
| 20260506153024 | 56 | 0.0 | 0.0 | 0.00 | 0.54 | 0.54 | 85 | 1005.1 | |
| 20260506152019 | 57 | 0.0 | 0.0 | 0.00 | 0.54 | 0.54 | 85 | 1005.1 | |
| 20260506151016 | 57 | 0.0 | 0.0 | 0.00 | 0.54 | 0.54 | 84 | 1005.1 | |
| 20260506150112 | 57 | 0.0 | 0.0 | 0.00 | 0.54 | 0.54 | 83 | 1005.1 | |
| 20260506145108 | 57 | 0.0 | 0.0 | 0.00 | 0.54 | 0.54 | 83 | 1004.9 | |
| 20260506144104 | 58 | 0.0 | 0.0 | 0.00 | 0.54 | 0.54 | 83 | 1004.9 | |
| 20260506143100 | 58 | 90 | 0.0 | 3.5 | 0.00 | 0.54 | 0.54 | 84 | 1005.0 |
| 20260506142057 | 58 | 0.0 | 0.0 | 0.00 | 0.54 | 0.54 | 86 | 1005.0 | |
| 20260506141053 | 59 | 0.0 | 0.0 | 0.00 | 0.54 | 0.54 | 91 | 1005.0 | |
| 20260506140109 | 58 | 0.0 | 0.0 | 0.00 | 0.54 | 0.54 | 93 | 1005.0 | |
| 20260506135045 | 56 | 0.0 | 0.0 | 0.00 | 0.54 | 0.54 | 93 | 1004.9 | |
| 20260506134041 | 56 | 0.0 | 0.0 | 0.00 | 0.54 | 0.54 | 94 | 1005.0 | |
| 20260506133037 | 57 | 0.0 | 0.0 | 0.00 | 0.54 | 0.54 | 97 | 1004.9 | |
| 20260506132033 | 56 | 0.0 | 0.0 | 0.00 | 0.54 | 0.54 | 98 | 1004.9 | |
| 20260506131028 | 56 | 315 | 0.0 | 1.7 | 0.00 | 0.54 | 0.54 | 99 | 1005.0 |
| 20260506130024 | 56 | 0.0 | 0.0 | 0.00 | 0.54 | 0.54 | 99 | 1005.0 | |
| 20260506125101 | 56 | 0.0 | 0.0 | 0.00 | 0.54 | 0.54 | 99 | 1004.8 | |
| 20260506124016 | 55 | 0.0 | 0.0 | 0.00 | 0.54 | 0.54 | 99 | 1004.8 | |
| 20260506123113 | 54 | 0.0 | 0.0 | 0.00 | 0.54 | 0.54 | 99 | 1004.9 | |
| 20260506122129 | 54 | 0.0 | 0.0 | 0.00 | 0.54 | 0.54 | 99 | 1004.9 | |
| 20260506121105 | 55 | 0.0 | 0.0 | 0.00 | 0.54 | 0.54 | 99 | 1004.8 | |
| 20260506115058 | 54 | 0.0 | 0.0 | 0.00 | 0.54 | 0.54 | 99 | 1004.6 | |
| 20260506114054 | 54 | 0.0 | 0.0 | 0.00 | 0.54 | 0.54 | 99 | 1004.5 | |
| 20260506113110 | 55 | 0.0 | 0.0 | 0.00 | 0.54 | 0.54 | 99 | 1004.4 | |
| 20260506112046 | 55 | 0.0 | 0.0 | 0.00 | 0.54 | 0.54 | 99 | 1004.3 | |
| 20260506111041 | 55 | 0.0 | 0.0 | 0.00 | 0.54 | 0.54 | 99 | 1004.2 | |
| 20260506110058 | 54 | 0.0 | 1.7 | 0.00 | 0.54 | 0.54 | 99 | 1004.2 | |
| 20260506105033 | 55 | 0.0 | 0.0 | 0.00 | 0.54 | 0.54 | 99 | 1004.1 | |
| 20260506104029 | 55 | 0.0 | 0.0 | 0.01 | 0.54 | 0.54 | 99 | 1004.1 | |
| 20260506103025 | 54 | 0.0 | 0.0 | 0.01 | 0.54 | 0.54 | 99 | 1003.9 | |
| 20260506102021 | 54 | 0.0 | 0.0 | 0.02 | 0.54 | 0.54 | 99 | 1003.9 | |
| 20260506101016 | 54 | 0.0 | 0.0 | 0.05 | 0.54 | 0.54 | 99 | 1003.8 | |
| 20260506100133 | 53 | 0.0 | 0.0 | 0.06 | 0.54 | 0.54 | 99 | 1003.8 | |
| 20260506095108 | 53 | 0.0 | 0.0 | 0.07 | 0.54 | 0.54 | 99 | 1003.8 | |
| 20260506094104 | 53 | 0.0 | 0.0 | 0.07 | 0.53 | 0.53 | 99 | 1003.6 | |
| 20260506093101 | 53 | 0.0 | 0.0 | 0.08 | 0.53 | 0.53 | 99 | 1003.7 | |
| 20260506092056 | 53 | 0.0 | 0.0 | 0.08 | 0.52 | 0.52 | 99 | 1003.5 | |
| 20260506091052 | 53 | 0.0 | 1.7 | 0.06 | 0.50 | 0.50 | 99 | 1003.4 | |
| 20260506090048 | 53 | 0.0 | 0.0 | 0.06 | 0.48 | 0.48 | 99 | 1003.4 | |
| 20260506085044 | 53 | 0.0 | 0.0 | 0.07 | 0.47 | 0.47 | 99 | 1003.4 | |
| 20260506084040 | 53 | 0.0 | 0.0 | 0.07 | 0.46 | 0.46 | 99 | 1003.3 | |
| 20260506083036 | 53 | 0.0 | 2.6 | 0.07 | 0.45 | 0.45 | 99 | 1003.3 | |
| 20260506082032 | 53 | 0.0 | 0.0 | 0.08 | 0.44 | 0.44 | 99 | 1003.3 | |
| 20260506081028 | 52 | 0.0 | 0.0 | 0.11 | 0.44 | 0.44 | 99 | 1003.2 | |
| 20260506073112 | 52 | 0.0 | 0.0 | 0.07 | 0.38 | 0.38 | 99 | 1003.1 | |
| 20260506072108 | 52 | 0.0 | 0.0 | 0.05 | 0.35 | 0.35 | 99 | 1003.0 | |
| 20260506071104 | 52 | 0.0 | 0.0 | 0.04 | 0.33 | 0.33 | 99 | 1002.9 |